Cloud_Cover
0 0 0 0 0 0 0 1 7 4 2 1 0 39 84 28 9 100 100 50 33 4 0 0 0 0 0 4 5 5 6 100 100 76 94 98 95 100 100 100 100 100 100
0 0 0 0 0 0 5 10 22 10 10 0 0 3 90 36 100 100 51 100 22 0 0 0 0 4 4 1 10 5 41 76 100 89 100 100 100 100 100 100 100 100 100
0 0 1 1 0 6 4 29 36 40 22 3 0 25 0 74 100 100 100 53 3 0 0 0 0 1 14 50 86 8 38 89 72 17 71 100 100 100 100 100 100 100 100
0 0 0 2 1 6 20 43 52 38 35 14 0 0 35 100 100 98 65 12 0 0 0 0 0 1 3 83 19 5 100 99 100 42 90 100 100 100 100 100 100 100 100
0 0 0 14 38 65 78 84 78 32 66 8 0 65 100 100 85 39 42 1 0 0 0 0 0 0 5 5 66 96 100 100 92 100 100 100 100 100 100 100 100 100 100
12 35 45 47 80 100 100 100 50 98 82 15 99 100 100 99 29 43 2 0 0 0 10 13 0 2 6 100 100 100 100 100 100 100 100 100 100 100 100 100 100 100 100
32 48 43 44 91 100 97 98 84 76 55 100 65 100 100 100 75 11 100 92 42 10 13 16 5 7 8 47 100 100 100 100 100 100 63 74 100 100 100 100 100 100 100
98 33 74 94 68 79 100 96 24 45 100 100 29 66 34 59 100 100 100 56 8 6 2 0 5 12 12 100 100 100 100 100 100 100 100 100 95 95 100 100 100 100 100
83 88 100 100 100 100 94 100 62 99 51 0 0 0 15 100 100 100 64 20 25 23 5 1 5 52 100 100 100 100 100 100 100 100 100 100 100 59 100 100 100 97 100
100 100 100 100 100 100 99 0 0 0 3 0 3 2 80 100 100 100 64 34 97 100 100 100 100 75 100 100 100 92 100 100 100 100 100 100 100 100 100 100 98 100 100
100 100 100 100 100 100 25 5 5 8 0 0 49 98 91 100 100 100 100 57 100 100 100 100 88 100 100 100 95 95 96 100 100 100 100 100 100 100 87 74 52 6 99
100 100 100 100 100 65 29 28 12 30 29 54 99 100 100 100 100 100 100 90 85 100 100 89 92 100 100 100 99 100 100 69 94 100 100 100 100 100 100 100 45 43 64
100 100 100 97 31 100 5 29 95 94 70 100 100 100 100 100 100 100 100 100 100 100 92 96 100 100 100 100 100 100 95 98 100 100 100 100 100 100 99 100 100 80 91
100 100 93 100 100 97 5 10 30 64 100 100 100 100 100 100 100 100 100 100 100 100 100 100 100 100 100 100 100 100 100 54 100 100 100 100 100 100 100 100 98 73 53
100 100 100 100 72 100 84 82 19 45 68 100 98 82 92 100 100 100 84 100 100 99 100 100 100 100 100 100 100 100 100 93 100 100 100 100 100 100 100 100 100 100 98
89 100 100 73 100 100 100 100 100 100 100 100 92 6 85 79 100 100 100 100 100 100 100 100 100 100 100 100 100 99 100 95 88 100 100 100 100 100 100 100 100 100 100
100 100 100 100 71 100 100 100 100 100 100 100 100 100 95 100 100 100 100 100 100 100 100 100 100 100 100 100 100 100 100 100 100 100 100 100 100 100 100 100 100 100 100
100 53 50 5 46 100 100 100 100 100 100 100 97 93 100 100 100 100 100 100 100 100 100 100 100 100 100 100 100 100 100 100 100 100 100 100 100 100 100 100 100 100 100
90 65 5 18 60 72 51 92 100 100 100 100 100 100 100 100 100 100 100 98 100 100 100 100 100 100 100 100 100 100 100 100 100 100 100 100 100 100 100 100 100 100 100
100 36 7 22 44 44 51 88 100 100 100 100 100 100 100 100 100 100 88 100 89 92 100 100 100 100 83 100 100 100 100 100 100 100 100 100 100 84 87 100 100 100 100
5 9 77 5 11 27 54 96 100 100 100 100 100 100 100 100 100 100 83 81 100 100 100 100 98 100 100 100 100 100 100 100 100 100 100 100 100 100 100 100 100 100 100
31 6 3 4 5 18 52 77 100 100 100 100 100 100 100 88 100 100 67 100 100 82 100 100 100 100 100 100 100 100 100 95 100 100 100 100 100 100 100 100 100 100 99
60 78 2 8 73 57 46 81 100 100 100 100 100 100 100 92 100 74 96 100 100 100 100 100 100 100 100 100 97 96 100 100 100 100 100 100 100 100 100 100 100 99 100
100 58 0 28 91 42 42 61 88 100 100 100 100 100 90 96 100 100 100 84 100 100 83 100 96 100 100 100 73 98 100 99 100 100 100 100 100 100 99 100 100 100 99
74 4 23 99 79 32 44 55 80 100 100 100 100 95 91 72 98 100 100 98 75 88 100 100 100 95 100 100 100 76 98 100 100 100 98 86 88 99 97 97 98 100 100
75 6 4 90 99 14 4 32 76 90 100 91 55 56 74 99 100 100 100 100 100 100 100 100 100 100 88 100 96 96 59 65 98 100 91 69 62 69 100 100 72 98 100